Temp
24 24 24 24 24 23 23 23 22 22 22 21 22 21 21 20 21 20 20 20 19 18 18 18 19 18 17 16 15 14 14 14 14 14 13 12 12 11 10 9 9 9 10
25 23 24 24 24 24 24 24 24 23 23 22 21 22 21 20 21 20 20 19 19 17 18 18 18 17 15 16 15 14 13 13 14 14 13 12 11 10 10 9 8 9 9
25 24 23 23 23 24 24 24 23 23 23 22 21 22 22 20 21 20 20 19 19 18 18 18 18 17 17 14 14 14 14 14 14 13 11 11 10 10 9 9 8 8 8
25 25 23 23 24 23 23 23 23 23 22 22 22 20 21 21 20 20 20 20 20 19 18 17 17 17 16 14 14 15 14 13 13 12 11 10 10 9 9 9 8 7 8
26 25 25 23 23 23 23 22 23 22 22 22 22 21 21 21 20 20 21 21 20 19 18 18 17 17 16 15 15 14 14 13 12 11 10 10 9 9 9 8 8 8 8
26 25 24 23 23 22 21 21 22 22 22 22 22 21 21 21 21 21 21 21 20 20 18 17 17 17 16 15 14 14 13 12 11 10 10 9 8 8 8 8 8 7 7
24 24 24 23 22 22 21 21 21 21 21 21 21 21 21 21 21 21 21 21 20 20 19 17 17 17 16 14 13 13 12 11 10 10 10 10 9 8 8 8 8 7 7
23 23 23 23 22 21 21 21 21 21 21 21 21 21 21 21 20 21 20 20 20 19 19 17 17 15 16 14 12 12 12 11 10 10 9 9 9 8 8 8 8 7 6
22 22 22 22 22 21 21 21 21 21 21 21 21 21 21 21 21 20 20 20 20 19 18 17 18 16 16 14 12 12 11 12 11 10 10 9 8 7 8 8 7 7 6
21 22 22 21 21 21 21 21 21 21 21 21 21 20 21 21 21 20 20 19 20 20 18 17 17 17 17 15 13 12 12 12 11 10 9 9 8 7 7 8 7 7 7
21 21 22 22 21 21 21 21 21 21 21 21 20 20 21 20 21 20 20 19 20 19 19 18 17 17 17 15 14 14 13 13 11 10 9 9 8 7 7 7 7 7 7
20 21 20 21 21 21 21 21 21 21 21 21 21 21 21 21 21 21 20 19 19 19 19 18 18 17 17 16 15 15 13 13 11 10 10 10 8 8 8 7 7 7 7
18 19 20 20 21 20 21 21 21 21 21 21 21 21 21 20 21 21 20 19 18 18 18 18 18 17 17 16 15 14 14 14 13 11 11 11 9 8 7 7 7 7 7
18 18 19 19 19 20 20 20 20 21 21 21 21 20 21 20 21 22 21 20 18 18 18 17 17 17 16 16 15 15 14 14 13 12 13 11 10 9 8 7 7 7 7
17 17 18 18 18 18 19 19 20 21 21 20 21 21 22 21 22 22 21 21 19 18 18 17 16 16 16 16 15 15 14 14 14 13 13 11 11 9 9 8 8 7 8
17 16 17 18 18 18 18 18 19 19 19 20 20 20 20 21 21 22 21 21 20 18 18 16 16 17 16 16 15 14 14 14 14 13 13 12 12 11 10 9 8 8 8
15 16 17 17 18 18 18 18 18 18 19 18 18 18 19 22 21 21 21 21 20 19 17 17 15 16 16 15 14 14 14 14 14 14 13 13 12 12 11 10 9 9 9
14 14 15 16 17 18 18 18 18 17 17 17 17 16 18 19 19 21 21 20 20 18 18 19 16 14 15 14 15 15 15 15 14 14 14 13 13 13 11 11 10 10 10
14 14 15 15 15 16 17 17 16 16 16 16 16 15 17 18 17 16 17 18 18 17 17 19 17 15 14 15 16 16 16 15 15 14 14 14 13 13 13 12 12 11 11
14 15 15 14 15 15 16 16 16 16 16 15 15 15 16 17 16 15 14 16 17 16 16 17 17 16 15 14 15 16 16 16 15 14 14 14 14 14 14 14 13 12 12
12 13 13 13 14 14 15 15 15 15 15 15 15 14 14 15 15 14 14 14 14 15 16 14 15 15 14 14 15 16 16 15 15 14 14 14 14 14 14 14 14 13 13
12 12 13 13 13 14 13 14 14 14 15 14 14 14 14 14 14 14 14 15 15 14 14 15 14 15 14 14 15 15 16 15 15 15 15 14 14 14 14 15 14 14 14
12 11 12 12 13 12 12 12 13 13 14 14 13 14 14 14 15 15 15 15 14 14 14 14 14 13 14 13 14 15 15 15 15 15 15 15 14 14 14 15 14 14 14
11 11 11 11 12 12 12 12 12 12 12 13 13 14 14 14 14 14 14 14 14 13 14 13 13 13 13 13 13 14 14 14 15 15 15 15 15 14 15 14 15 15 15
9 10 10 11 11 11 12 12 12 12 12 12 12 12 12 13 13 13 13 13 13 13 13 13 13 13 13 13 12 13 13 13 12 13 15 15 15 15 15 15 15 15 15
8 9 9 10 10 10 10 11 11 10 10 10 11 11 11 11 11 12 12 12 11 12 12 12 12 12 12 12 12 11 11 11 12 14 15 15 15 15 15 15 15 15 15
Height
1523 1526 1530 1533 1536 1539 1541 1543 1546 1548 1550 1550 1551 1553 1554 1554 1554 1553 1551 1549 1548 1544 1542 1540 1538 1537 1537 1535 1534 1532 1531 1531 1530 1530 1525 1525 1522 1521 1520 1519 1517 1518 1516
1517 1523 1526 1529 1532 1535 1537 1540 1543 1545 1546 1547 1549 1550 1551 1552 1552 1552 1550 1547 1546 1544 1543 1541 1539 1538 1536 1536 1534 1533 1532 1532 1531 1528 1526 1525 1523 1522 1521 1521 1520 1519 1519
1511 1518 1523 1526 1529 1532 1534 1537 1539 1541 1543 1544 1545 1547 1549 1550 1550 1550 1548 1547 1545 1544 1543 1540 1539 1538 1537 1536 1534 1533 1532 1531 1530 1527 1526 1525 1525 1522 1521 1521 1521 1520 1520
1506 1512 1518 1522 1525 1528 1532 1534 1537 1539 1540 1541 1543 1545 1546 1547 1548 1548 1546 1545 1544 1543 1543 1541 1539 1538 1538 1536 1534 1533 1532 1530 1530 1527 1528 1526 1525 1524 1524 1522 1521 1521 1520
1503 1507 1513 1518 1522 1525 1528 1531 1533 1535 1537 1538 1540 1542 1543 1543 1544 1546 1544 1544 1543 1541 1542 1541 1539 1540 1539 1538 1536 1533 1531 1528 1529 1529 1528 1526 1525 1525 1525 1524 1523 1523 1522
1501 1504 1510 1514 1518 1521 1524 1527 1529 1531 1532 1534 1536 1538 1540 1540 1542 1544 1543 1542 1541 1540 1541 1541 1539 1539 1539 1539 1537 1535 1532 1530 1531 1531 1528 1527 1527 1527 1527 1526 1526 1526 1525
1500 1506 1509 1512 1514 1517 1520 1523 1524 1525 1528 1530 1532 1533 1536 1538 1539 1540 1540 1540 1539 1539 1539 1540 1538 1538 1539 1539 1537 1536 1536 1533 1534 1533 1530 1529 1527 1527 1528 1528 1528 1528 1527
1499 1503 1506 1509 1511 1513 1516 1518 1519 1522 1524 1526 1528 1530 1532 1534 1535 1537 1537 1536 1536 1537 1537 1538 1538 1538 1539 1538 1539 1539 1540 1538 1536 1534 1532 1529 1528 1528 1528 1528 1529 1529 1531
1499 1502 1504 1505 1506 1509 1511 1513 1515 1518 1520 1522 1524 1526 1528 1529 1531 1533 1534 1534 1533 1535 1535 1536 1537 1538 1539 1538 1539 1540 1539 1539 1537 1536 1534 1532 1530 1530 1529 1529 1528 1530 1535
1498 1500 1501 1502 1504 1505 1507 1509 1511 1514 1516 1518 1520 1523 1525 1526 1528 1530 1531 1531 1530 1532 1532 1533 1534 1536 1537 1538 1538 1539 1540 1540 1538 1537 1536 1534 1532 1531 1531 1532 1533 1534 1531
1492 1495 1498 1499 1501 1502 1504 1505 1507 1509 1511 1513 1515 1518 1521 1522 1524 1526 1528 1528 1529 1529 1530 1531 1532 1533 1536 1537 1538 1538 1540 1540 1540 1539 1537 1537 1535 1534 1534 1533 1533 1533 1535
1490 1493 1495 1496 1498 1500 1500 1502 1502 1505 1508 1509 1511 1513 1515 1517 1518 1521 1522 1524 1525 1527 1528 1530 1531 1532 1535 1537 1538 1539 1539 1539 1539 1541 1540 1539 1537 1536 1535 1534 1534 1534 1534
1492 1493 1494 1494 1496 1496 1496 1498 1501 1503 1503 1504 1505 1507 1510 1512 1513 1516 1518 1520 1521 1524 1526 1527 1529 1530 1534 1536 1539 1540 1540 1539 1540 1542 1541 1541 1539 1539 1537 1536 1537 1538 1539
1491 1490 1490 1492 1494 1494 1495 1497 1499 1500 1500 1500 1502 1502 1504 1507 1509 1513 1513 1514 1516 1520 1523 1525 1526 1527 1531 1534 1537 1539 1540 1540 1541 1541 1542 1543 1542 1542 1542 1541 1539 1540 1540
1490 1491 1492 1493 1492 1492 1493 1494 1494 1494 1495 1496 1499 1500 1503 1502 1505 1508 1509 1507 1509 1515 1520 1522 1522 1523 1526 1530 1534 1538 1540 1541 1543 1542 1543 1543 1544 1544 1546 1545 1544 1545 1545
1491 1491 1492 1493 1493 1493 1493 1493 1493 1493 1493 1494 1495 1495 1497 1499 1501 1500 1505 1505 1505 1510 1513 1518 1520 1522 1523 1527 1530 1535 1538 1541 1542 1542 1543 1545 1545 1545 1546 1546 1547 1546 1547
1491 1491 1491 1490 1492 1491 1491 1491 1493 1492 1490 1488 1488 1489 1489 1492 1493 1494 1497 1497 1500 1506 1508 1511 1515 1518 1523 1525 1530 1533 1537 1539 1541 1542 1543 1545 1545 1544 1546 1547 1548 1548 1547
1491 1491 1490 1490 1490 1490 1490 1491 1491 1489 1486 1484 1485 1486 1486 1486 1485 1488 1488 1490 1495 1498 1499 1500 1509 1516 1521 1525 1529 1532 1534 1537 1539 1541 1542 1544 1544 1545 1546 1547 1549 1549 1551
1490 1490 1490 1489 1489 1488 1487 1487 1487 1486 1486 1484 1484 1484 1485 1485 1486 1488 1488 1488 1491 1494 1496 1494 1502 1509 1516 1520 1524 1529 1532 1533 1537 1539 1540 1543 1543 1544 1547 1548 1548 1551 1551
1489 1489 1489 1488 1487 1486 1485 1485 1485 1485 1485 1483 1482 1484 1485 1487 1488 1490 1490 1490 1492 1493 1493 1493 1498 1504 1511 1515 1518 1525 1528 1530 1534 1536 1538 1540 1542 1544 1545 1548 1549 1551 1552
1487 1487 1488 1487 1487 1485 1484 1484 1484 1484 1484 1484 1483 1484 1485 1486 1487 1488 1488 1487 1486 1489 1488 1490 1494 1501 1507 1510 1515 1521 1524 1527 1530 1533 1535 1538 1540 1541 1545 1547 1548 1550 1551
1487 1487 1486 1486 1485 1483 1482 1482 1482 1482 1482 1483 1483 1484 1485 1487 1485 1488 1486 1483 1483 1483 1485 1491 1494 1497 1501 1506 1512 1516 1520 1523 1525 1529 1533 1535 1538 1539 1542 1545 1546 1548 1550
1486 1488 1487 1485 1483 1482 1481 1480 1481 1480 1480 1481 1481 1482 1483 1484 1481 1479 1479 1480 1482 1484 1486 1489 1491 1494 1497 1501 1508 1512 1514 1519 1522 1526 1529 1532 1534 1537 1539 1542 1545 1547 1548
1493 1491 1488 1485 1482 1480 1480 1479 1479 1480 1480 1479 1479 1479 1480 1479 1479 1478 1477 1479 1481 1483 1485 1486 1488 1490 1494 1495 1502 1507 1510 1514 1517 1522 1526 1529 1531 1534 1537 1539 1542 1545 1547
1496 1491 1487 1484 1481 1480 1481 1479 1479 1480 1480 1479 1479 1480 1480 1480 1480 1479 1479 1479 1481 1482 1484 1484 1486 1486 1490 1492 1497 1501 1504 1508 1511 1516 1523 1526 1529 1531 1533 1535 1538 1541 1543
1495 1490 1486 1485 1483 1483 1481 1481 1480 1481 1480 1480 1482 1482 1483 1481 1481 1481 1480 1480 1481 1482 1483 1484 1485 1486 1488 1489 1490 1494 1499 1507 1510 1515 1519 1522 1524 1527 1530 1531 1535 1536 1538
Wind_Speed
25 25 23 21 19 17 20 19 19 18 15 14 15 12 8 6 5 12 13 11 10 12 12 13 11 8 7 7 7 8 11 12 7 12 8 8 12 9 4 4 5 10 9
25 26 24 23 20 18 18 18 18 19 19 19 16 11 10 8 7 11 11 13 12 11 14 13 9 6 5 6 5 6 8 10 13 7 5 11 9 10 5 3 3 7 8
26 24 27 25 24 21 18 17 16 16 17 17 14 11 11 9 9 7 14 10 12 10 13 11 9 7 6 10 12 12 10 11 9 7 11 13 12 12 6 4 4 5 7
27 23 26 28 26 24 23 21 18 18 17 17 16 15 13 11 10 5 15 14 13 10 11 10 6 7 8 6 10 10 9 7 14 11 12 9 7 11 8 5 6 6 7
25 25 24 25 26 25 24 22 22 20 19 18 17 17 17 16 11 8 15 17 16 14 9 9 6 5 4 3 9 12 14 12 9 11 11 10 12 6 8 4 8 8 9
21 25 23 22 23 24 24 22 22 21 20 18 17 17 17 15 9 13 19 20 18 16 9 8 8 4 4 6 9 13 17 16 12 9 9 9 10 4 6 5 6 5 8
13 13 19 21 21 23 23 23 23 23 20 19 18 18 16 16 15 15 14 16 19 14 9 6 5 2 4 6 10 13 18 21 20 22 16 15 11 8 5 4 5 3 10
15 19 17 19 22 23 24 25 26 25 23 21 19 18 17 16 18 16 15 16 18 13 9 4 6 9 5 6 8 9 14 18 18 20 20 17 11 8 5 4 5 5 12
13 17 22 25 25 24 23 24 25 24 23 22 20 18 16 17 18 19 18 17 19 14 9 6 7 7 3 3 5 4 9 15 12 17 17 19 15 9 8 8 7 7 9
13 15 17 17 18 18 19 19 19 20 21 21 18 17 15 15 18 18 18 17 18 13 10 9 9 6 3 4 5 9 1 10 12 12 15 16 18 12 9 8 7 8 4
15 14 14 16 15 16 17 17 17 18 18 17 18 16 16 19 18 18 17 18 18 13 10 11 10 8 5 6 5 4 3 6 6 10 12 14 13 15 12 7 5 5 3
13 16 10 10 14 13 16 18 16 14 14 18 19 17 18 20 20 18 17 18 20 18 10 9 8 7 7 7 4 6 10 8 4 5 4 11 11 12 12 11 11 9 7
3 4 10 14 14 16 12 15 15 17 16 16 15 16 16 20 21 16 17 19 23 22 14 10 7 7 8 8 5 10 13 9 3 9 2 12 15 10 12 13 12 12 12
2 3 6 8 12 11 10 10 14 15 15 16 17 17 16 19 19 14 15 21 25 26 20 15 11 9 8 9 8 10 11 10 6 11 2 6 9 14 12 12 15 14 15
0 4 7 7 8 7 10 10 15 18 17 16 16 18 17 19 17 18 15 12 18 26 24 19 18 17 15 14 11 10 8 9 9 6 2 6 5 9 10 10 10 12 12
3 2 5 4 9 9 9 11 13 14 14 15 16 17 17 19 23 24 16 11 8 18 25 24 21 18 16 14 11 9 11 10 9 9 8 5 5 4 7 8 7 9 9
2 4 4 3 3 4 4 1 7 12 14 17 17 16 24 28 23 21 19 15 15 18 22 25 24 21 16 12 11 10 12 12 13 12 12 10 11 7 2 6 10 11 11
5 5 3 7 6 7 4 1 5 6 9 13 11 9 11 14 16 21 25 21 18 18 18 18 24 22 17 15 14 13 14 16 17 14 13 14 14 10 13 4 8 14 14
4 4 3 3 4 6 9 8 6 6 6 11 8 10 6 6 13 15 10 11 17 20 16 16 15 19 21 20 17 16 17 20 13 17 15 16 17 13 15 9 9 6 10
4 4 3 3 3 3 1 2 4 5 2 6 4 9 13 9 9 13 10 9 13 16 13 18 19 22 25 24 22 19 21 21 14 18 15 17 18 15 15 13 17 12 8
5 4 4 4 3 3 1 3 1 2 1 3 2 4 6 7 5 7 8 9 4 4 7 9 16 23 26 25 25 20 22 22 18 20 17 16 16 19 16 14 17 7 14
4 3 4 5 4 3 2 2 4 3 3 5 8 9 8 7 7 4 2 2 3 5 2 5 9 16 23 28 27 24 24 22 18 19 19 16 17 19 17 17 17 13 13
6 4 2 3 3 3 2 1 2 3 3 3 4 7 7 5 4 7 5 2 3 2 4 9 15 12 16 28 29 27 28 19 20 16 21 19 17 17 17 18 17 14 16
3 4 2 1 3 2 2 3 2 1 2 3 4 5 7 7 7 6 5 5 7 8 7 8 12 13 15 26 32 30 30 26 22 20 19 19 18 15 16 18 18 18 17
5 6 5 5 5 5 3 4 4 3 3 3 2 1 1 1 1 0 1 1 3 6 10 10 8 10 17 22 38 34 34 30 20 21 20 21 18 17 18 16 17 18 19
13 11 12 11 10 9 9 7 7 7 7 7 7 6 6 6 6 4 4 4 3 1 3 5 9 12 15 16 30 40 31 30 13 17 24 24 22 17 19 18 17 17 18
Wind_Direction
225 221 222 226 229 225 227 227 218 212 211 241 250 251 253 281 314 308 323 317 329 328 335 345 354 18 23 41 1 8 7 20 17 8 28 22 359 15 20 31 67 33 21
229 216 225 228 228 230 233 235 236 235 232 236 256 256 253 261 274 298 311 301 323 323 329 338 352 20 22 14 358 35 11 20 20 1 19 16 14 15 40 121 100 17 31
222 222 223 231 235 235 239 240 243 244 245 246 254 260 256 258 278 271 289 290 314 303 321 330 344 3 11 26 26 23 41 31 9 359 57 34 34 24 57 90 56 16 50
214 229 224 230 237 240 241 245 244 249 252 251 247 243 261 265 274 255 277 303 313 302 321 326 337 356 19 39 19 15 27 50 49 35 39 35 40 42 46 46 55 49 49
213 223 235 231 235 241 247 247 249 249 252 254 254 244 244 254 265 254 276 298 315 306 312 308 341 345 20 31 11 28 29 33 87 42 33 18 51 62 36 115 51 61 72
215 219 225 236 241 240 242 246 248 249 251 254 257 250 246 251 250 252 265 279 295 307 297 309 304 318 18 27 31 34 38 46 54 38 34 38 30 86 43 65 58 63 88
200 210 224 229 237 236 237 238 242 246 247 249 254 258 253 243 238 246 261 274 288 299 293 306 304 57 23 36 36 32 44 42 43 33 39 40 44 64 72 42 32 86 128
244 238 231 238 237 238 234 236 239 237 241 242 250 254 254 242 236 243 256 272 282 286 284 266 231 255 328 49 39 355 33 35 40 35 36 35 45 68 64 52 51 61 132
227 239 236 236 240 234 237 235 237 235 235 241 246 250 254 241 233 239 246 264 276 275 263 246 267 253 270 128 128 13 4 21 34 33 40 32 33 49 76 66 53 51 142
239 235 244 229 241 235 236 237 236 236 238 237 241 239 253 249 241 237 240 253 268 263 249 234 250 241 229 185 144 90 245 49 36 34 31 27 27 51 69 55 54 66 133
194 204 228 241 230 231 235 236 235 233 230 237 234 235 240 238 242 242 242 247 264 256 247 235 237 236 217 205 187 138 143 67 47 35 31 26 37 62 68 71 75 97 109
226 212 194 207 219 243 247 227 224 224 224 230 241 233 241 245 247 243 238 235 248 257 253 243 236 214 212 212 182 125 115 94 132 81 56 21 70 65 68 76 82 117 130
93 213 218 234 239 226 229 221 218 216 223 226 229 230 229 237 248 246 236 230 229 243 246 238 230 212 213 212 180 129 110 94 119 160 80 49 59 71 80 76 81 84 100
143 170 198 219 226 246 231 243 226 223 230 236 232 222 221 228 249 243 234 230 223 230 238 230 222 222 214 206 196 157 137 116 96 165 332 59 52 66 69 70 83 84 92
300 293 306 242 217 219 211 198 214 220 230 235 233 232 237 237 254 255 241 234 237 229 232 221 215 215 209 208 201 181 159 142 153 186 196 85 90 83 74 83 66 86 89
184 357 42 289 257 270 260 263 254 261 271 270 265 258 250 244 238 247 244 251 245 245 226 224 224 224 222 212 205 188 165 171 168 158 178 121 139 116 72 97 99 102 94
341 258 208 164 87 4 302 292 309 305 296 296 301 273 253 252 257 240 231 225 210 222 227 222 226 225 218 201 188 197 189 191 171 186 182 172 162 177 140 112 130 112 100
330 324 280 250 209 195 184 246 316 325 329 314 305 260 258 243 231 241 223 224 209 198 215 224 231 226 204 180 204 204 208 209 187 184 190 182 187 180 176 190 129 127 117
337 351 323 294 282 276 257 233 266 293 310 316 282 242 251 194 195 170 173 213 218 201 209 205 232 229 198 185 198 212 213 218 217 182 196 192 197 174 180 207 203 154 127
285 287 306 334 310 293 342 323 256 291 284 256 260 220 238 232 175 195 225 209 215 228 243 233 231 215 204 198 189 202 212 217 214 185 200 198 202 180 189 191 190 201 168
335 276 246 256 249 238 46 104 136 134 96 148 156 138 164 183 200 215 232 257 285 298 309 259 230 222 211 202 191 199 211 212 213 194 200 205 204 187 196 193 205 212 178
337 313 265 261 260 248 240 156 136 142 145 182 171 155 150 152 138 135 167 48 30 321 9 277 238 233 232 206 193 192 205 215 221 201 198 206 208 194 196 200 203 208 202
354 333 283 239 250 282 289 190 189 165 173 199 185 199 200 242 300 315 312 301 203 223 198 273 282 272 224 209 197 196 195 200 217 211 194 207 208 200 201 201 207 207 201
319 289 295 81 97 63 51 90 82 123 199 206 236 261 279 297 296 301 312 287 277 278 254 260 242 234 235 212 200 200 198 195 199 212 203 207 208 206 207 204 209 212 213
43 49 49 52 72 70 69 102 99 92 98 81 69 55 57 101 132 119 356 344 255 245 251 255 249 222 221 210 199 204 202 200 187 199 205 204 209 215 207 209 213 215 215
53 58 62 61 64 74 80 72 71 87 84 85 87 86 91 100 101 98 85 56 49 56 253 242 239 237 233 230 214 211 206 192 181 185 197 202 203 207 216 213 218 218 219